Location: Godiavel Galaoual
(15.2485°N, 12.6604°W)
Time: 09:32:33
(UTC+00:00)

Envisat - Pass Details

Date: 07 December 2021
Orbit: 764 x 766 km, 98.2° (Epoch: 21 January)

Event Time Altitude Azimuth Distance (km) Brightness Sun altitude
Rises 05:28:23 0° 14° (NNE) 3,222 6.2 -22.5°
Reaches altitude 10° 05:30:42 10° 15° (NNE) 2,295 5.4 -22.0°
Maximum altitude 05:35:45 78° 102° (ESE) 781 3.1 -20.8°
Drops below altitude 10° 05:40:48 10° 188° (S) 2,291 5.6 -19.7°
Sets 05:43:06 0° 190° (S) 3,216 6.4 -19.1°
